TimeEDT,TemperatureF,Dew PointF,Humidity,Sea Level PressureIn,VisibilityMPH,Wind Direction,Wind SpeedMPH,Gust SpeedMPH,PrecipitationIn,Events,Conditions,WindDirDegrees,DateUTC
12:53 AM,41.0,30.9,67,30.05,10.0,Calm,Calm,-,N/A,,Clear,0,2014-04-12 04:53:00
1:53 AM,43.0,30.0,60,30.06,10.0,Calm,Calm,-,N/A,,Partly Cloudy,0,2014-04-12 05:53:00
2:53 AM,42.1,30.9,65,30.08,10.0,SSW,3.5,-,N/A,,Mostly Cloudy,210,2014-04-12 06:53:00
3:53 AM,42.1,32.0,67,30.08,10.0,Calm,Calm,-,N/A,,Partly Cloudy,0,2014-04-12 07:53:00
4:53 AM,37.9,32.0,79,30.09,10.0,Calm,Calm,-,N/A,,Clear,0,2014-04-12 08:53:00
5:53 AM,39.9,32.0,73,30.09,10.0,ENE,3.5,-,N/A,,Clear,70,2014-04-12 09:53:00
6:53 AM,37.9,32.0,79,30.09,10.0,SE,5.8,-,N/A,,Clear,140,2014-04-12 10:53:00
7:53 AM,43.0,34.0,71,30.12,10.0,NE,6.9,-,N/A,,Clear,40,2014-04-12 11:53:00
8:53 AM,50.0,33.1,52,30.10,10.0,East,3.5,-,N/A,,Clear,90,2014-04-12 12:53:00
9:53 AM,57.9,32.0,37,30.08,10.0,SE,9.2,-,N/A,,Clear,140,2014-04-12 13:53:00
10:53 AM,63.0,33.1,33,30.06,10.0,SSE,5.8,-,N/A,,Clear,160,2014-04-12 14:53:00
11:53 AM,66.9,32.0,27,30.04,10.0,South,6.9,-,N/A,,Clear,190,2014-04-12 15:53:00
12:53 PM,70.0,30.9,24,30.01,10.0,Variable,5.8,-,N/A,,Clear,0,2014-04-12 16:53:00
1:53 PM,71.1,32.0,24,29.99,10.0,South,17.3,23.0,N/A,,Partly Cloudy,190,2014-04-12 17:53:00
2:53 PM,70.0,30.0,23,29.99,10.0,WSW,13.8,21.9,N/A,,Overcast,250,2014-04-12 18:53:00
3:53 PM,70.0,30.0,23,29.96,10.0,SW,15.0,21.9,N/A,,Overcast,230,2014-04-12 19:53:00
4:53 PM,68.0,35.1,30,29.88,10.0,SE,9.2,-,N/A,,Overcast,130,2014-04-12 20:53:00
5:53 PM,66.9,37.9,34,29.85,10.0,South,8.1,-,N/A,,Mostly Cloudy,170,2014-04-12 21:53:00
6:53 PM,60.1,43.0,53,29.86,10.0,NE,19.6,28.8,0.00,Thunderstorm,Overcast,40,2014-04-12 22:53:00
7:17 PM,55.9,43.0,62,29.92,10.0,NNW,26.5,40.3,N/A,Thunderstorm,Thunderstorm,340,2014-04-12 23:17:00
7:27 PM,50.0,43.0,77,29.91,2.5,NNW,18.4,34.5,0.17,Rain-Thunderstorm,Heavy Thunderstorms and Rain,340,2014-04-12 23:27:00
7:38 PM,50.0,45.0,83,29.89,6.0,South,9.2,-,0.19,Rain-Thunderstorm,Light Thunderstorms and Rain,190,2014-04-12 23:38:00
7:53 PM,50.0,45.0,83,29.88,10.0,ENE,13.8,-,0.19,Rain,Light Rain,60,2014-04-12 23:53:00
8:04 PM,50.0,45.0,83,29.87,10.0,NE,12.7,-,0.00,Rain,Light Rain,50,2014-04-13 00:04:00
8:53 PM,50.0,45.0,83,29.86,9.0,East,16.1,-,0.00,,Mostly Cloudy,80,2014-04-13 00:53:00
9:53 PM,52.0,46.9,83,29.87,10.0,ENE,11.5,-,N/A,,Overcast,70,2014-04-13 01:53:00
10:53 PM,51.1,46.0,83,29.88,9.0,ENE,10.4,-,N/A,,Mostly Cloudy,60,2014-04-13 02:53:00
11:53 PM,51.1,46.0,83,29.90,10.0,NE,9.2,-,N/A,,Overcast,40,2014-04-13 03:53:00